FW7308 Weather Reports


Display with metric or nautical units.
time (UTC)temp
F
wind
direction
speed
MPH
gust
MPH
rain 1hr
in
rain 24hr
in
rain mn
in
humidity
%
barometer
mb
20260904073228 59 324 2.0 2.0 0.00 0.00 0.00 99 1013.7
20260904072727 59 326 1.0 2.0 0.00 0.00 0.00 99 1013.5
20260904072226 59 322 2.0 2.0 0.00 0.00 0.00 99 1013.7
20260904071727 59 322 1.0 2.0 0.00 0.00 0.00 99 1013.7
20260904071226 59 328 1.0 2.0 0.00 0.00 0.00 99 1013.7
20260904070726 59 0.0 0.0 0.00 0.00 0.00 99 1013.7
20260904070225 59 322 1.0 2.0 0.00 0.00 0.00 99 1013.7
20260904065724 59 326 1.0 1.0 0.00 0.00 0.00 99 1013.7
20260904065225 59 329 2.0 2.0 0.00 0.00 0.00 99 1013.7
20260904064724 59 326 1.0 2.0 0.00 0.00 0.00 99 1013.7
20260904064224 59 325 1.0 1.0 0.00 0.00 0.00 99 1013.7
20260904063723 60 327 1.0 1.0 0.00 0.00 0.00 99 1013.8
20260904063224 60 322 1.0 2.0 0.00 0.00 0.00 99 1013.7
20260904062732 59 329 2.0 2.0 0.00 0.00 0.00 99 1013.7
20260904062223 60 322 1.0 2.0 0.00 0.00 0.00 99 1013.7
20260904061722 60 320 2.0 2.0 0.00 0.00 0.00 99 1014.0
20260904061222 60 327 1.0 1.0 0.00 0.00 0.00 99 1014.0
20260904060723 60 326 1.0 1.0 0.00 0.00 0.00 99 1014.0
20260904060224 60 325 2.0 2.0 0.00 0.00 0.00 99 1014.0
20260904055721 60 322 2.0 2.0 0.00 0.00 0.00 99 1014.0
20260904055220 60 325 2.0 2.0 0.00 0.00 0.00 99 1014.2
20260904054721 60 324 1.0 1.0 0.00 0.00 0.00 99 1014.2
20260904054220 60 324 2.0 2.0 0.00 0.00 0.00 99 1014.4
20260904053719 60 323 1.0 1.0 0.00 0.00 0.00 99 1014.4
20260904053218 60 321 1.0 2.0 0.00 0.00 0.00 99 1014.5
20260904052719 60 324 1.0 2.0 0.00 0.00 0.00 99 1014.7
20260904052239 60 324 1.0 2.0 0.00 0.00 0.00 99 1014.4
20260904051217 61 324 2.0 2.0 0.00 0.00 0.00 99 1014.7
20260904050717 61 325 2.0 2.0 0.00 0.00 0.00 99 1014.7
20260904050217 61 327 2.0 2.0 0.00 0.00 0.00 99 1014.7
20260904045717 61 323 1.0 2.0 0.00 0.00 0.00 99 1014.7
20260904045216 61 323 2.0 2.0 0.00 0.00 0.00 99 1014.7
20260904044717 61 323 1.0 2.0 0.00 0.00 0.00 99 1014.9
20260904044246 61 326 1.0 2.0 0.00 0.00 0.00 99 1015.1
20260904043745 61 322 1.0 1.0 0.00 0.00 0.00 99 1014.7
20260904043245 61 322 1.0 1.0 0.00 0.00 0.00 99 1014.7
20260904042745 61 324 1.0 1.0 0.00 0.00 0.00 99 1014.7
20260904042245 61 327 1.0 1.0 0.00 0.00 0.00 99 1014.7
20260904041747 62 325 1.0 1.0 0.00 0.00 0.00 99 1014.7
20260904041243 62 324 1.0 1.0 0.00 0.00 0.00 99 1015.1
20260904040745 62 0.0 0.0 0.00 0.00 0.00 99 1015.1
20260904040243 62 326 0.0 1.0 0.00 0.00 0.00 99 1014.7
20260904035744 62 324 1.0 1.0 0.00 0.00 0.04 99 1014.7
20260904033743 63 0.0 0.0 0.00 0.00 0.04 99 1015.1
20260904032740 64 323 1.0 1.0 0.00 0.00 0.04 99 1015.1
20260904032241 64 0.0 0.0 0.00 0.00 0.04 99 1015.1
20260904031740 64 331 1.0 1.0 0.00 0.00 0.04 99 1015.1
20260904031239 64 326 2.0 2.0 0.00 0.00 0.04 99 1015.1
20260904030742 64 336 2.0 2.0 0.00 0.00 0.04 99 1015.1
20260904030239 64 328 1.0 2.0 0.00 0.00 0.04 99 1015.1
20260904025739 65 322 1.0 2.0 0.00 0.00 0.04 99 1015.4
20260904024738 65 324 2.0 2.0 0.00 0.00 0.04 99 1015.1
20260904024239 65 325 2.0 2.0 0.00 0.00 0.04 99 1015.4
20260904013739 65 0.0 0.0 0.00 0.00 0.04 99 1015.4
20260904013233 66 0.0 0.0 0.00 0.00 0.04 99 1015.4
20260904012737 66 0.0 0.0 0.00 0.00 0.04 99 1015.4
20260904012235 66 323 1.0 1.0 0.00 0.00 0.04 99 1015.4
20260904011733 66 324 1.0 1.0 0.00 0.00 0.04 99 1015.4
20260904011232 66 322 1.0 2.0 0.00 0.00 0.04 99 1015.1
20260904010731 66 326 1.0 2.0 0.00 0.00 0.04 99 1015.4
20260904010236 66 320 2.0 2.0 0.00 0.00 0.04 99 1015.4
20260904005731 66 323 1.0 1.0 0.00 0.00 0.04 99 1015.4
20260904004730 66 321 1.0 2.0 0.00 0.00 0.04 99 1015.4
20260904004231 66 325 1.0 2.0 0.00 0.00 0.04 99 1015.4
20260904003731 66 328 2.0 2.0 0.00 0.00 0.04 99 1015.1
20260904003329 66 330 1.0 2.0 0.00 0.00 0.04 99 1015.1
20260904002829 66 322 1.0 2.0 0.00 0.00 0.04 99 1015.1
20260904002229 66 328 2.0 2.0 0.00 0.00 0.04 99 1015.1
20260904001729 66 326 1.0 2.0 0.00 0.00 0.04 99 1015.1
20260904001328 66 323 1.0 2.0 0.00 0.00 0.04 99 1015.1
20260904000727 67 329 1.0 2.0 0.00 0.00 0.04 99 1015.1
20260904000226 67 325 2.0 2.0 0.00 0.00 0.04 99 1014.7
20260903235728 67 0.0 0.0 0.00 0.00 0.04 99 1014.7
20260903235227 67 331 1.0 1.0 0.00 0.00 0.04 99 1014.7
20260903234726 67 329 1.0 2.0 0.00 0.00 0.04 99 1014.7
20260903234225 68 323 1.0 1.0 0.00 0.00 0.04 99 1014.4
20260903233724 68 326 1.0 1.0 0.00 0.00 0.04 99 1014.4
20260903233226 68 0.0 0.0 0.00 0.00 0.04 99 1014.4
20260903232725 68 325 1.0 1.0 0.00 0.00 0.04 99 1014.5
20260903232225 68 323 1.0 1.0 0.00 0.00 0.04 99 1014.4
20260903231723 68 322 1.0 1.0 0.00 0.00 0.04 99 1014.4
20260903231225 69 323 1.0 1.0 0.00 0.00 0.04 99 1014.4
20260903230724 69 326 1.0 1.0 0.00 0.00 0.04 99 1014.7
20260903230223 69 327 0.0 1.0 0.00 0.00 0.04 99 1014.7
20260903225827 69 323 2.0 2.0 0.00 0.00 0.04 99 1014.7
20260903225226 70 323 2.0 2.0 0.00 0.00 0.04 99 1014.7
20260903224722 70 0.0 0.0 0.00 0.00 0.04 99 1014.7
20260903223722 71 346 0.0 1.0 0.00 0.00 0.04 99 1014.7
20260903223224 71 331 0.0 1.0 0.00 0.00 0.04 99 1014.7
20260903222724 72 0.0 0.0 0.00 0.00 0.04 97 1014.4
20260903222220 73 0.0 0.0 0.00 0.00 0.04 97 1014.5
20260903221822 73 0.0 0.0 0.00 0.00 0.04 97 1014.7
20260903221321 74 0.0 0.0 0.00 0.00 0.04 93 1014.7
20260903220800 0 0.0 0.0 0.00 0.00 0.04 1014.7
20260903210245 75 324 1.0 1.0 0.00 0.00 0.04 90 1014.7
20260903205744 75 324 1.0 1.0 0.00 0.00 0.04 90 1015.1
20260903195241 74 302 3.0 3.0 0.00 0.00 0.04 91 1015.1
20260903194740 73 263 3.0 5.0 0.00 0.00 0.04 92 1015.1
20260903194239 73 263 3.0 5.0 0.00 0.00 0.04 92 1015.4
20260903193738 72 125 5.0 7.0 0.00 0.00 0.04 94 1015.4
20260903193240 72 149 5.0 7.0 0.00 0.00 0.04 94 1015.4
20260903192739 72 283 3.0 3.0 0.00 0.00 0.04 94 1015.1
20260903192238 71 212 4.0 7.0 0.00 0.00 0.04 94 1015.4
20260903191739 71 33 4.0 5.0 0.00 0.00 0.04 94 1015.4
20260903191238 71 303 2.0 2.0 0.00 0.00 0.04 93 1015.4
20260903190737 71 303 2.0 2.0 0.00 0.00 0.04 93 1015.6
20260903190237 72 100 6.0 7.0 0.00 0.00 0.04 93 1015.4
20260903185736 71 283 3.0 3.0 0.00 0.00 0.04 94 1015.8
20260903185237 71 238 4.0 7.0 0.00 0.00 0.04 94 1015.8
20260903184839 71 89 4.0 6.0 0.00 0.00 0.04 95 1015.6
20260903184236 71 318 2.0 3.0 0.00 0.00 0.04 95 1015.8
20260903183902 71 292 2.0 2.0 0.00 0.00 0.04 95 1015.8
20260903183339 71 290 2.0 3.0 0.00 0.00 0.04 96 1015.8
20260903182735 70 289 3.0 5.0 0.00 0.00 0.04 97 1015.8
20260903182236 70 325 2.0 3.0 0.00 0.00 0.04 97 1016.1
20260903181734 70 285 3.0 3.0 0.00 0.00 0.04 97 1016.1
20260903180735 69 328 0.0 1.0 0.00 0.00 0.04 99 1015.8
20260903180234 69 297 2.0 3.0 0.00 0.00 0.04 99 1015.9
20260903175732 68 345 1.0 1.0 0.00 0.00 0.04 99 1016.1
20260903175235 68 339 1.0 1.0 0.00 0.00 0.04 99 1016.1
20260903174733 67 286 2.0 2.0 0.00 0.00 0.04 99 1016.1
20260903174232 67 273 2.0 3.0 0.00 0.00 0.04 99 1016.1
20260903173731 67 331 1.0 1.0 0.00 0.00 0.04 99 1016.1
20260903173234 66 334 1.0 2.0 0.00 0.00 0.04 99 1016.1
20260903172734 66 353 2.0 3.0 0.00 0.00 0.04 99 1016.1
20260903172231 66 294 2.0 3.0 0.00 0.00 0.04 99 1016.3
20260903171730 66 297 3.0 3.0 0.00 0.00 0.04 99 1016.1
20260903171232 66 17 2.0 2.0 0.00 0.00 0.04 99 1016.1
20260903170800 66 314 2.0 2.0 0.00 0.00 0.04 99 1016.1
20260903170229 66 0.0 0.0 0.00 0.00 0.04 99 1016.5
20260903165731 65 298 2.0 2.0 0.00 0.00 0.04 99 1016.5
20260903165230 65 334 2.0 2.0 0.00 0.00 0.04 99 1016.5
20260903164730 65 310 2.0 2.0 0.00 0.00 0.04 99 1016.5
20260903164229 65 313 1.0 1.0 0.00 0.00 0.04 99 1016.5
20260903163732 64 335 2.0 2.0 0.00 0.00 0.04 99 1016.5
20260903163228 64 314 1.0 2.0 0.00 0.00 0.04 99 1016.5
20260903162727 64 274 2.0 3.0 0.00 0.00 0.04 99 1016.5
20260903162226 64 0.0 0.0 0.00 0.00 0.04 99 1016.5
20260903161726 64 0.0 0.0 0.00 0.00 0.04 99 1016.5
20260903161225 64 315 2.0 2.0 0.00 0.00 0.04 99 1016.6
20260903160726 63 335 1.0 1.0 0.00 0.00 0.04 99 1016.5
20260903160225 63 0.0 0.0 0.00 0.00 0.04 99 1016.8
20260903155725 64 323 1.0 1.0 0.00 0.00 0.04 99 1016.8
20260903155224 63 326 0.0 1.0 0.00 0.00 0.04 99 1016.8
20260903154825 63 0.0 0.0 0.00 0.00 0.04 99 1016.8
20260903154224 63 340 1.0 1.0 0.00 0.00 0.04 99 1016.6
20260903153823 63 354 2.0 2.0 0.00 0.00 0.04 99 1016.5
20260903153222 62 321 0.0 1.0 0.00 0.00 0.04 99 1016.8
20260903152723 62 341 1.0 1.0 0.00 0.00 0.04 99 1016.8
20260903152222 62 312 2.0 2.0 0.00 0.00 0.04 99 1016.8
20260903151722 62 312 1.0 2.0 0.00 0.00 0.04 99 1016.8
20260903151221 62 329 0.0 1.0 0.00 0.00 0.04 99 1016.8
20260903150723 62 285 2.0 3.0 0.00 0.00 0.04 99 1017.0
20260903150224 62 332 2.0 2.0 0.00 0.00 0.04 99 1016.8
20260903145721 61 331 1.0 2.0 0.00 0.00 0.04 99 1016.8
20260903145220 62 339 1.0 1.0 0.00 0.00 0.04 99 1017.0
20260903144721 61 335 1.0 1.0 0.00 0.00 0.04 99 1016.8
20260903144222 61 316 1.0 1.0 0.00 0.00 0.04 99 1017.2
20260903143719 61 329 0.0 1.0 0.00 0.00 0.04 99 1017.2
20260903143220 61 329 1.0 1.0 0.00 0.00 0.04 99 1017.2
20260903142719 61 328 1.0 1.0 0.00 0.00 0.04 99 1017.2
20260903142219 61 0.0 0.0 0.00 0.00 0.04 99 1017.2
20260903141908 61 339 0.0 1.0 0.00 0.00 0.04 99 1017.2
20260903141219 60 334 0.0 1.0 0.00 0.00 0.04 99 1017.2
20260903140718 60 341 1.0 2.0 0.00 0.00 0.04 99 1017.0
20260903140218 60 336 1.0 1.0 0.00 0.00 0.04 99 1017.0
20260903135718 60 344 1.0 2.0 0.00 0.00 0.04 99 1017.2
20260903134717 60 5 2.0 3.0 0.00 0.00 0.04 99 1017.2
20260903134216 60 358 1.0 2.0 0.00 0.00 0.04 99 1017.2
20260903133745 60 346 1.0 2.0 0.00 0.00 0.04 99 1017.2
20260903133246 60 14 2.0 2.0 0.00 0.00 0.04 99 1017.2
20260903132745 60 326 1.0 1.0 0.00 0.00 0.04 99 1017.2
20260903132244 60 326 2.0 2.0 0.00 0.00 0.04 99 1017.2
20260903131745 60 347 0.0 1.0 0.00 0.00 0.04 99 1017.2
20260903131244 60 336 0.0 1.0 0.00 0.00 0.04 99 1017.2
20260903130743 60 352 2.0 2.0 0.00 0.00 0.04 99 1017.2
20260903130243 59 344 1.0 1.0 0.00 0.00 0.04 99 1017.2
20260903125742 59 12 2.0 3.0 0.00 0.00 0.04 99 1017.2
20260903125243 59 346 2.0 2.0 0.00 0.00 0.04 99 1017.2
20260903124844 59 330 1.0 2.0 0.00 0.00 0.04 99 1017.3
20260903124242 59 339 1.0 2.0 0.00 0.00 0.04 99 1017.3
20260903123741 59 7 3.0 3.0 0.00 0.00 0.04 99 1017.5
20260903123242 59 323 2.0 3.0 0.00 0.00 0.04 99 1017.5
20260903114739 59 323 2.0 2.0 0.00 0.00 0.04 99 1017.9
20260903114238 59 341 2.0 3.0 0.00 0.00 0.04 99 1017.9
20260903113238 59 136 4.0 6.0 0.00 0.00 0.04 99 1017.9
20260903112738 59 81 3.0 5.0 0.00 0.00 0.04 99 1017.9
20260903112337 59 299 2.0 2.0 0.00 0.00 0.04 99 1017.9
20260903111736 59 58 2.0 5.0 0.00 0.00 0.04 99 1017.9
20260903111235 59 164 3.0 6.0 0.00 0.00 0.04 99 1017.9
20260903110736 59 213 3.0 5.0 0.00 0.00 0.04 99 1017.9
20260903110235 59 254 3.0 3.0 0.00 0.00 0.04 99 1017.9
20260903105734 59 50 3.0 3.0 0.00 0.00 0.04 99 1017.9
20260903105236 58 268 1.0 2.0 0.00 0.00 0.04 99 1017.9
20260903104735 58 282 2.0 3.0 0.00 0.00 0.04 99 1017.9
20260903104234 58 29 3.0 3.0 0.00 0.00 0.04 99 1017.9
20260903103733 58 335 2.0 2.0 0.00 0.00 0.04 99 1017.7
20260903103232 58 9 2.0 3.0 0.00 0.00 0.04 99 1017.5
20260903102734 58 313 1.0 2.0 0.00 0.00 0.04 99 1017.5
20260903102233 58 118 3.0 5.0 0.00 0.00 0.04 99 1017.5
20260903101732 58 6 2.0 3.0 0.00 0.00 0.04 99 1017.5
20260903101231 58 164 3.0 6.0 0.00 0.00 0.04 99 1017.9
20260903100734 58 318 2.0 2.0 0.00 0.00 0.04 99 1017.5
20260903100232 58 105 3.0 5.0 0.00 0.00 0.04 99 1017.9
20260903095731 58 341 1.0 2.0 0.00 0.00 0.04 99 1017.9
20260903095230 58 326 2.0 3.0 0.00 0.00 0.03 99 1017.9
20260903094731 58 32 2.0 3.0 0.00 0.00 0.03 99 1017.9
20260903094235 58 112 4.0 5.0 0.00 0.00 0.03 99 1017.9
20260903093735 58 43 3.0 5.0 0.00 0.00 0.03 99 1017.9
20260903093229 58 46 3.0 3.0 0.00 0.00 0.03 99 1017.9
20260903092728 58 228 3.0 3.0 0.00 0.00 0.03 99 1017.5
20260903092229 58 90 4.0 6.0 0.00 0.00 0.03 99 1017.9
20260903091230 58 49 3.0 6.0 0.00 0.00 0.03 99 1017.5
20260903090727 58 167 5.0 7.0 0.00 0.00 0.03 99 1017.9
20260903085227 58 59 7.0 11.0 0.00 0.00 0.03 99 1017.9
20260903084728 58 4 3.0 3.0 0.00 0.00 0.03 99 1017.9
20260903084227 58 50 3.0 5.0 0.00 0.00 0.03 99 1018.2
20260903083726 58 173 5.0 6.0 0.00 0.00 0.03 99 1018.2
20260903083225 58 341 2.0 3.0 0.00 0.00 0.03 99 1018.4
20260903082724 58 74 4.0 5.0 0.00 0.00 0.03 99 1018.2
20260903081725 58 21 1.0 2.0 0.00 0.00 0.03 99 1018.4
20260903080225 58 8 1.0 2.0 0.00 0.00 0.03 99 1018.2
20260903075728 58 325 1.0 2.0 0.00 0.00 0.03 99 1018.2
20260903075223 58 354 2.0 3.0 0.00 0.00 0.03 99 1018.6
20260903074223 58 337 0.0 1.0 0.00 0.00 0.03 99 1018.4